Location: Newark
(40.9833°N, 0.0333°W)
Time: 13:02:47
(UTC+00:00)

M-CUBED/EXP-1 PRIME - Visible Passes

Search period start: 20 November 2019 00:00
Search period end: 30 November 2019 00:00
Orbit: 429 x 668 km, 101.7° (Epoch: 20 November)

Date Brightness Start Highest point End Pass type
(mag) Time Alt. Az. Time Alt. Az. Time Alt. Az.
20 Nov ? 03:14:56 10° ENE 03:16:27 11° E 03:16:29 11° E visible
20 Nov ? 04:46:34 10° NNE 04:51:03 74° WNW 04:52:12 49° SW visible
21 Nov ? 04:41:55 10° NNE 04:46:26 86° WNW 04:48:07 39° SSW visible
21 Nov ? 06:18:56 10° NW 06:19:59 11° NW 06:21:02 10° WNW visible
22 Nov ? 04:37:15 10° NNE 04:41:48 81° ESE 04:44:13 28° SSW visible
22 Nov ? 06:13:32 10° NNW 06:15:26 13° WNW 06:17:21 10° W visible
23 Nov ? 04:32:37 10° NNE 04:37:10 69° ESE 04:40:58 15° S visible
23 Nov ? 06:08:25 10° NNW 06:10:52 15° WNW 06:13:20 10° W visible
24 Nov ? 04:28:01 10° NNE 04:32:31 58° ESE 04:37:02 10° S visible
24 Nov ? 06:03:26 10° NNW 06:06:18 17° WNW 06:09:12 10° W visible
25 Nov ? 04:23:24 10° NNE 04:27:52 49° ESE 04:32:17 10° S visible
25 Nov ? 05:58:30 10° NNW 06:01:43 19° WNW 06:04:58 10° WSW visible
26 Nov ? 04:18:50 10° NNE 04:23:11 41° ESE 04:27:31 10° S visible
26 Nov ? 05:53:38 10° N 05:57:08 22° WNW 06:00:39 10° WSW visible
27 Nov ? 04:14:18 10° NE 04:18:31 35° ESE 04:22:41 10° SSE visible
27 Nov ? 05:48:48 10° N 05:52:32 26° WNW 05:56:18 10° WSW visible
28 Nov ? 04:09:46 10° NE 04:13:49 30° E 04:17:50 10° SSE visible
28 Nov ? 05:43:59 10° N 05:47:57 29° WNW 05:51:53 10° WSW visible
29 Nov ? 04:05:17 10° NE 04:09:07 26° E 04:12:55 10° SSE visible
29 Nov ? 05:39:12 10° N 05:43:20 34° WNW 05:47:26 10° SW visible
